PST,Max TemperatureF,Mean TemperatureF,Min TemperatureF,Max Dew PointF,MeanDew PointF,Min DewpointF,Max Humidity, Mean Humidity, Min Humidity, Max Sea Level PressureIn, Mean Sea Level PressureIn, Min Sea Level PressureIn, Max VisibilityMiles, Mean VisibilityMiles, Min VisibilityMiles, Max Wind SpeedMPH, Mean Wind SpeedMPH, Max Gust SpeedMPH,PrecipitationIn, CloudCover, Events, WindDirDegrees
2013-2-1,48,40,32,43,37,30,100,93,86,30.37,30.32,30.25,10,2,0,10,2,13,0.00,7,Fog,187
2013-2-2,50,43,35,43,39,34,100,87,74,30.35,30.30,30.28,10,3,0,8,3,,0.00,7,Fog,192
2013-2-3,49,45,40,43,41,39,100,86,71,30.36,30.30,30.26,10,7,2,12,2,,0.00,8,,138
2013-2-4,54,46,37,43,40,36,100,83,66,30.25,30.12,29.99,10,7,0,10,3,14,0.00,6,Fog,222
2013-2-5,53,48,42,45,42,39,93,82,71,30.12,30.03,29.97,10,9,4,17,9,23,0.44,7,Rain,191
2013-2-6,55,48,40,41,39,38,96,74,51,30.15,30.06,29.89,10,10,10,26,10,32,0.07,7,Rain,188
2013-2-7,47,40,32,38,36,31,100,86,71,30.14,30.04,30.00,10,10,5,16,5,21,0.04,7,Rain,199
2013-2-8,45,41,37,37,36,33,100,85,70,30.30,30.24,30.14,10,7,2,14,6,25,T,7,,6
2013-2-9,47,42,36,41,37,34,100,85,70,30.32,30.30,30.28,10,9,2,7,3,22,0.02,8,Rain,154
2013-2-10,49,46,42,41,40,37,96,86,76,30.35,30.33,30.30,10,7,2,13,4,16,0.00,8,,30
2013-2-11,50,46,41,42,38,35,92,77,61,30.43,30.39,30.33,10,10,10,9,4,12,0.01,8,Rain,346
2013-2-12,56,50,44,47,44,42,93,80,66,30.52,30.47,30.44,10,10,10,9,5,10,T,8,Rain,179
2013-2-13,52,48,43,47,44,41,93,85,77,30.52,30.49,30.47,10,10,10,10,5,12,0.00,8,,207
2013-2-14,57,46,35,45,40,36,100,83,66,30.58,30.52,30.47,10,7,0,16,6,18,0.00,5,Fog,317
2013-2-15,46,42,37,43,41,37,100,93,86,30.46,30.34,30.25,10,3,0,13,5,15,0.00,7,Fog,26
2013-2-16,52,43,34,45,39,34,100,83,66,30.33,30.29,30.26,10,8,0,15,6,18,T,5,Fog,192
2013-2-17,51,41,31,39,34,30,100,79,58,30.32,30.24,30.11,10,9,0,10,3,36,T,6,Fog,42
2013-2-18,47,39,30,38,34,30,100,83,65,30.09,29.97,29.76,10,10,10,13,6,,0.03,6,,185
2013-2-19,50,44,37,39,37,34,92,74,56,30.02,29.79,29.66,10,10,7,12,5,17,0.14,7,Rain,321
2013-2-20,49,40,31,40,36,29,100,81,61,30.16,30.09,30.03,10,10,8,17,6,23,0.06,7,Rain,212
2013-2-21,46,41,35,40,38,35,100,88,76,30.27,30.23,30.17,10,10,8,14,9,20,0.04,8,Rain,191
2013-2-22,47,42,36,43,39,34,92,82,71,30.24,30.12,30.00,10,9,3,23,13,30,0.21,8,Rain,197
2013-2-23,47,39,31,38,35,30,100,86,71,30.48,30.35,30.17,10,9,1,14,7,20,0.18,6,Rain,201
2013-2-24,52,42,31,38,34,30,100,72,44,30.48,30.38,30.15,10,8,0,14,7,16,0.00,7,Fog,177
2013-2-25,50,41,32,41,37,32,92,74,56,30.44,30.30,30.13,10,10,8,22,9,25,0.24,6,Rain,224
2013-2-26,52,40,27,39,33,27,100,74,48,30.43,30.35,30.27,10,8,0,14,5,16,0.00,5,Fog,193
2013-2-27,54,46,37,45,40,35,93,76,59,30.33,30.30,30.25,10,10,7,13,6,15,0.09,8,Rain,163
2013-2-28,57,52,47,54,49,44,100,93,86,30.49,30.37,30.25,10,8,1,15,9,17,0.04,8,Rain,190